Weather History for Poplar Bluff, MO

Change the Weather History Date:

Friday, June 28, 2013

  Actual Average Record
Temperature  
Mean Temperature 83 °F -  
Max Temperature 93 °F 89 °F 107 °F (1944)
Min Temperature 73 °F 66 °F 46 °F (1926)
Cooling Degree Days 18    
Growing Degree Days 33 (Base 50)    
Moisture  
Dew Point 68 °F    
Average Humidity 68    
Maximum Humidity 88    
Minimum Humidity 37    
Precipitation  
Precipitation 0.35 in - - ()
Sea Level Pressure  
Sea Level Pressure 29.78 in    
Wind  
Wind Speed 5 mph (WNW)    
Max Wind Speed 16 mph    
Max Gust Speed 30 mph    
Visibility 9 miles    
Events Rain , Thunderstorm    
Averages and records for this station are not official NWS values.
T = Trace of Precipitation, MM = Missing Value Source: NWS Daily Summary

Daily Weather History Graph

Daily Weather History Graph

Search for Another Location

Airport:

Trip Planner

Search our weather history database for the weather conditions in past years. The results will help you decide how hot, cold, wet, or windy it might be!

Date:

Astronomy

Jun. 28, 2013 Rise Set
Actual Time 5:44 AM CDT 8:24 PM CDT
Civil Twilight 5:14 AM CDT 8:54 PM CDT
Nautical Twilight 4:36 AM CDT 9:33 PM CDT
Astronomical Twilight 3:53 AM CDT 10:15 PM CDT
Moon No Moon Rise 11:42 AM CDT (6/28)
Length of Visible Light 15h 40m
Length of Day
14h 39m
Waning Gibbous, 66% of the Moon is Illuminated
Jun 28
Waning Gibbous
Jun 29
Last Quarter
Jul 8
New
Jul 15
First Quarter
Jul 22
Full

Hourly Weather History & Observations

Time (CDT) Temp. Heat Index Dew Point Humidity Pressure Visibility Wind Dir Wind Speed Gust Speed Precip Events Conditions
12:53 AM 80.1 °F 82.9 °F 69.1 °F 69% 29.83 in 10.0 mi Calm Calm - N/A   Clear
1:53 AM 78.1 °F - 69.1 °F 74% 29.82 in 10.0 mi Calm Calm - N/A   Clear
2:53 AM 75.9 °F - 70.0 °F 82% 29.79 in 10.0 mi Calm Calm - N/A   Clear
3:34 AM 75.2 °F - 69.8 °F 83% 29.80 in 10.0 mi Calm Calm - N/A Thunderstorm Clear
3:49 AM 75.2 °F - 69.8 °F 83% 29.80 in 8.0 mi NNW 3.5 mph - 0.00 in Rain Light Rain
3:53 AM 75.9 °F - 71.1 °F 85% 29.78 in 4.0 mi North 3.5 mph - 0.05 in Rain Heavy Rain
4:05 AM 77.0 °F - 69.8 °F 78% 29.81 in 10.0 mi WSW 16.1 mph 29.9 mph 0.02 in Rain , Thunderstorm Light Thunderstorms and Rain
4:35 AM 73.4 °F - 69.8 °F 88% 29.89 in 1.8 mi West 8.1 mph 26.5 mph 0.14 in Rain , Thunderstorm Heavy Thunderstorms and Rain
4:46 AM 73.4 °F - 68.0 °F 83% 29.85 in 3.0 mi WSW 10.4 mph 21.9 mph 0.24 in Rain , Thunderstorm Heavy Thunderstorms and Rain
4:53 AM 73.0 °F - 66.9 °F 81% 29.83 in 7.0 mi WSW 8.1 mph - 0.25 in Rain , Thunderstorm Light Rain
5:02 AM 73.4 °F - 68.0 °F 83% 29.84 in 10.0 mi West 9.2 mph - 0.00 in Rain Light Rain
5:36 AM 73.4 °F - 69.8 °F 88% 29.83 in 10.0 mi West 9.2 mph - 0.00 in Thunderstorm Scattered Clouds
5:53 AM 73.0 °F - 69.1 °F 87% 29.80 in 10.0 mi NW 9.2 mph - 0.00 in Rain , Thunderstorm Light Thunderstorms and Rain
6:13 AM 73.4 °F - 69.8 °F 88% 29.81 in 9.0 mi NNE 5.8 mph - 0.02 in Rain Light Rain
6:53 AM 73.0 °F - 69.1 °F 87% 29.75 in 10.0 mi NNE 8.1 mph - 0.04 in Rain Light Rain
7:53 AM 73.9 °F - 70.0 °F 87% 29.77 in 10.0 mi NW 5.8 mph - 0.01 in   Clear
8:53 AM 78.1 °F - 72.0 °F 81% 29.79 in 10.0 mi NW 6.9 mph - N/A   Partly Cloudy
9:53 AM 82.0 °F 86.7 °F 72.0 °F 71% 29.81 in 10.0 mi SW 3.5 mph - N/A   Partly Cloudy
10:53 AM 86.0 °F 92.2 °F 72.0 °F 63% 29.82 in 10.0 mi NW 4.6 mph - N/A   Mostly Cloudy
11:53 AM 88.0 °F 95.6 °F 73.0 °F 61% 29.81 in 10.0 mi WNW 6.9 mph - N/A   Clear
12:53 PM 90.0 °F 95.4 °F 70.0 °F 52% 29.80 in 10.0 mi West 5.8 mph - N/A   Partly Cloudy
1:53 PM 93.0 °F 97.4 °F 68.0 °F 44% 29.77 in 10.0 mi NW 11.5 mph - N/A   Clear
2:53 PM 93.0 °F 95.0 °F 64.9 °F 39% 29.74 in 10.0 mi NW 10.4 mph - N/A   Clear
3:53 PM 93.9 °F 95.6 °F 64.0 °F 37% 29.73 in 10.0 mi West 9.2 mph 18.4 mph N/A   Clear
4:53 PM 93.0 °F 94.6 °F 64.0 °F 38% 29.71 in 10.0 mi WNW 11.5 mph 19.6 mph N/A   Clear
5:53 PM 91.0 °F 93.0 °F 64.9 °F 42% 29.70 in 10.0 mi WNW 11.5 mph 18.4 mph N/A   Clear
6:53 PM 89.1 °F 91.0 °F 64.9 °F 45% 29.70 in 10.0 mi NW 11.5 mph - N/A   Clear
7:53 PM 84.9 °F 87.1 °F 66.0 °F 53% 29.71 in 10.0 mi NW 8.1 mph - N/A   Clear
8:53 PM 82.0 °F 83.0 °F 62.1 °F 51% 29.72 in 10.0 mi NW 9.2 mph - N/A   Clear
9:53 PM 77.0 °F - 62.1 °F 60% 29.73 in 10.0 mi NNW 5.8 mph - N/A   Clear
10:53 PM 75.9 °F - 60.1 °F 58% 29.74 in 10.0 mi WNW 4.6 mph - N/A   Clear
11:53 PM 73.9 °F - 61.0 °F 64% 29.75 in 10.0 mi Calm Calm - N/A   Clear